Weather in Antipovka

Russia / Volgograd Oblast     49°49′39″N   45°18′44″E
temp.,
°C
wind,
m/s
gust,
m/s
humid.,
%
clouds,
%
prec.,
mm/h
press.,
hPa
HPBL,
m
4 march, thu
thu400:00−4wnw611850 0.0 1017534
03:00−4w59860 0.0 1018276
06:00−3wsw6138834 0.0 1017379
09:000wsw9157663 0.0 1016865
12:00+3w10155893 0.0 10151191
15:00+5wsw10155046 0.0 10131227
18:00+2sw716610 0.0 1012470
21:00+1sw818660 0.0 1011574
5 march, fri
fri500:00+1sw917740 0.0 1010556
03:00+1wsw9187915 0.0 1009587
06:00+1wsw91786100 0.0 1009600
09:00+2wsw91590100 0.0 1009751
12:00+3wsw61392100 0.1 1010592
15:00+3wsw61293100 0.3 1010489
18:00+2w3796100 0.2 1012215
21:00+1w3696100 0.4 1014170
6 march, sat
sat600:000n2398100 0.2 1014166
03:00−1nne2298100 0.6 1014140
06:00−2ne6896100 1.7 1014336
09:00−2ne71095100 3.9 1012454
12:00−2ne71196100 2.9 1011622
15:00−2ne81093100 4.3 1010627
18:00−4nne81295100 0.9 1011629
21:00−4nne71192100 1.5 1013637
7 march, sun
sun700:00−5n4892100 0.1 1014395
03:00−6nnw479194 0.1 1016204
06:00−8nnw228830 0.0 101821
09:00−6w348614 0.0 1020219
12:00−3wsw578517 0.0 1020663
15:00−2wsw688158 0.1 1018941
18:00−4wsw6138196 0.0 1017652
21:00−4sw7157798 0.0 1016544
8 march, mon
mon800:00−3sw91773100 0.0 1013739
03:00−3sw91775100 0.0 1012662
06:00−3wsw81679100 0.0 1011592
09:00−2sw81578100 0.0 1010722
12:00+1wsw10167786 0.0 10091306
15:00+1wsw9177988 0.0 10091353
18:000wsw7168341 0.0 1010603
21:00−3nnw498336 0.2 1014398